CDT,Max TemperatureF,Mean TemperatureF,Min TemperatureF,Max Dew PointF,MeanDew PointF,Min DewpointF,Max Humidity, Mean Humidity, Min Humidity, Max Sea Level PressureIn, Mean Sea Level PressureIn, Min Sea Level PressureIn, Max VisibilityMiles, Mean VisibilityMiles, Min VisibilityMiles, Max Wind SpeedMPH, Mean Wind SpeedMPH, Max Gust SpeedMPH,PrecipitationIn, CloudCover, Events, WindDirDegrees
2013-7-1,80,68,56,59,54,47,100,64,34,30.20,30.17,30.13,10,10,5,12,2,17,0.00,1,,38
2013-7-2,79,66,53,57,51,45,86,60,30,30.17,30.13,30.08,10,10,10,12,5,17,0.00,0,,39
2013-7-3,80,65,50,56,47,32,97,56,19,30.09,30.04,29.98,10,10,7,8,1,,0.00,0,,99
2013-7-4,85,73,61,60,56,53,83,58,33,30.00,29.95,29.90,10,10,10,15,7,22,0.00,1,,176
2013-7-5,86,74,64,64,58,56,74,55,38,29.94,29.90,29.84,10,10,7,20,11,30,0.01,2,Rain,178
2013-7-6,87,78,69,65,62,59,70,56,44,29.92,29.89,29.85,10,10,10,14,10,20,0.00,2,Rain,175
2013-7-7,87,79,71,72,67,63,100,67,51,29.90,29.87,29.85,10,10,3,12,8,22,0.03,3,Rain,199
2013-7-8,82,72,63,72,66,63,100,85,58,30.02,29.97,29.90,10,8,1,9,5,,0.03,4,,349
2013-7-9,82,74,67,72,68,63,99,81,63,29.99,29.87,29.82,10,9,2,20,6,34,0.52,3,Rain,227
2013-7-10,77,67,58,61,56,52,94,66,43,30.05,30.02,29.91,10,10,7,17,10,24,0.00,1,,318
2013-7-11,81,68,55,62,57,53,100,68,39,30.13,30.08,30.02,10,8,1,12,3,,0.01,0,,167
2013-7-12,84,75,66,61,59,57,74,58,43,30.06,30.01,29.95,10,10,10,20,10,29,0.00,0,,168
2013-7-13,76,70,64,65,61,55,93,74,54,30.11,30.05,29.98,10,10,10,16,9,23,0.15,5,Rain,166
2013-7-14,84,76,68,67,63,61,86,68,46,30.22,30.16,30.11,10,10,10,13,6,20,0.00,4,Rain,161
2013-7-15,86,74,64,68,64,61,97,68,44,30.27,30.23,30.20,10,10,7,12,4,10,0.00,2,,181
2013-7-16,89,81,73,72,69,66,93,70,45,30.24,30.21,30.19,10,10,7,14,7,18,0.00,1,,202
2013-7-17,91,82,72,71,68,63,94,66,39,30.27,30.22,30.14,10,10,7,13,5,18,0.00,1,,224
2013-7-18,91,82,73,70,68,64,86,62,40,30.14,29.96,29.78,10,10,10,24,9,30,0.00,0,,214
2013-7-19,82,74,66,70,62,55,85,61,39,29.89,29.82,29.72,10,10,7,18,11,24,0.01,2,Rain,271
2013-7-20,78,69,61,62,56,49,94,65,38,29.99,29.94,29.87,10,10,10,10,5,,0.00,2,Rain,23
2013-7-21,76,66,57,65,57,44,97,74,52,30.00,29.92,29.84,10,10,5,10,5,,0.14,3,Rain,105
2013-7-22,85,73,61,70,63,54,97,74,43,29.84,29.75,29.68,10,10,10,20,10,23,0.00,2,,238
2013-7-23,73,64,55,54,50,47,92,62,41,30.04,29.97,29.85,10,10,10,15,7,22,0.00,1,,11
2013-7-24,75,62,51,56,51,48,94,65,45,30.09,30.05,30.00,10,10,10,8,2,,0.00,4,,212
2013-7-25,80,70,60,65,59,55,94,71,47,29.99,29.96,29.92,10,10,3,10,5,,0.11,3,Rain,221
2013-7-26,68,60,52,64,55,46,99,79,56,30.08,29.97,29.89,10,10,3,20,8,29,0.06,5,Rain,318
2013-7-27,59,54,49,52,48,44,95,85,63,30.07,29.99,29.93,10,10,4,18,9,28,0.19,8,Rain,320
2013-7-28,69,59,49,54,50,46,100,77,52,30.07,30.00,29.95,10,10,10,14,9,18,0.00,6,,327
2013-7-29,76,60,45,55,51,46,100,70,39,30.15,30.11,30.07,10,9,2,9,2,9,0.00,2,,176
2013-7-30,70,65,60,65,61,56,100,90,73,30.14,30.11,30.07,10,8,2,8,3,,0.07,8,Rain,121
2013-7-31,77,67,57,67,59,51,100,78,42,30.09,30.04,29.99,10,7,0,14,4,23,0.00,4,Fog-Rain,273